| time (UTC) | temp C | wind direction | speed KPH | gust KPH | rain 1hr cm | rain 24hr cm | rain mn cm | humidity % | barometer mb |
| 20260503010007 | 10 | 342 | 0.0 | 3.2 | 0.00 | 0.00 | 0.00 | 58 | 1016.3 |
| 20260503005507 | 10 | 342 | 1.6 | 3.2 | 0.00 | 0.00 | 0.00 | 54 | 1016.3 |
| 20260503005010 | 11 | 341 | 0.0 | 3.2 | 0.00 | 0.00 | 0.00 | 55 | 1016.3 |
| 20260503004506 | 11 | 341 | 1.6 | 3.2 | 0.00 | 0.00 | 0.00 | 55 | 1016.4 |
| 20260503004007 | 12 | 342 | 1.6 | 3.2 | 0.00 | 0.00 | 0.00 | 53 | 1016.3 |
| 20260503003506 | 12 | 341 | 0.0 | 1.6 | 0.00 | 0.00 | 0.00 | 46 | 1016.3 |
| 20260503003013 | 12 | 341 | 0.0 | 1.6 | 0.00 | 0.00 | 0.00 | 48 | 1016.3 |
| 20260503002505 | 12 | 341 | 0.0 | 1.6 | 0.00 | 0.00 | 0.00 | 47 | 1016.3 |
| 20260503002004 | 12 | 341 | 0.0 | 1.6 | 0.00 | 0.00 | 0.00 | 47 | 1016.4 |
| 20260503001504 | 12 | 342 | 0.0 | 1.6 | 0.00 | 0.00 | 0.00 | 42 | 1016.5 |
| 20260503001004 | 13 | 342 | 0.0 | 1.6 | 0.00 | 0.00 | 0.00 | 41 | 1016.5 |
| 20260503000504 | 13 | 342 | 0.0 | 0.0 | 0.00 | 0.00 | 0.00 | 40 | 1016.4 |
| 20260503000004 | 13 | 342 | 0.0 | 3.2 | 0.00 | 0.00 | 0.00 | 41 | 1016.3 |
| 20260502235502 | 13 | 342 | 0.0 | 3.2 | 0.00 | 0.00 | 0.00 | 41 | 1016.4 |
| 20260502235002 | 13 | 342 | 1.6 | 3.2 | 0.00 | 0.00 | 0.00 | 41 | 1016.4 |
| 20260502234502 | 12 | 342 | 0.0 | 4.8 | 0.00 | 0.00 | 0.00 | 44 | 1016.5 |
| 20260502234002 | 12 | 342 | 0.0 | 4.8 | 0.00 | 0.00 | 0.00 | 42 | 1016.5 |
| 20260502233500 | 12 | 340 | 1.6 | 4.8 | 0.00 | 0.00 | 0.00 | 45 | 1016.5 |
| 20260502233001 | 12 | 246 | 0.0 | 3.2 | 0.00 | 0.00 | 0.00 | 39 | 1016.6 |
| 20260502232600 | 12 | 235 | 0.0 | 4.8 | 0.00 | 0.00 | 0.00 | 41 | 1016.6 |
| 20260502232100 | 12 | 235 | 1.6 | 4.8 | 0.00 | 0.00 | 0.00 | 42 | 1016.7 |
| 20260502231603 | 12 | 302 | 1.6 | 4.8 | 0.00 | 0.00 | 0.00 | 41 | 1016.7 |
| 20260502231059 | 12 | 300 | 1.6 | 4.8 | 0.00 | 0.00 | 0.00 | 42 | 1016.7 |
| 20260502230559 | 12 | 300 | 1.6 | 6.4 | 0.00 | 0.00 | 0.00 | 42 | 1016.7 |
| 20260502230059 | 12 | 257 | 1.6 | 8.0 | 0.00 | 0.00 | 0.00 | 45 | 1016.7 |
| 20260502225557 | 12 | 11 | 3.2 | 8.0 | 0.00 | 0.00 | 0.00 | 44 | 1016.7 |
| 20260502225058 | 12 | 290 | 3.2 | 8.0 | 0.00 | 0.00 | 0.00 | 44 | 1016.8 |
| 20260502224557 | 12 | 299 | 3.2 | 9.7 | 0.00 | 0.00 | 0.00 | 46 | 1016.8 |
| 20260502224056 | 12 | 275 | 4.8 | 12.9 | 0.00 | 0.00 | 0.00 | 43 | 1016.8 |
| 20260502223556 | 12 | 293 | 4.8 | 14.5 | 0.00 | 0.00 | 0.00 | 43 | 1016.9 |
| 20260502223056 | 12 | 295 | 8.0 | 14.5 | 0.00 | 0.00 | 0.00 | 43 | 1016.9 |
| 20260502222558 | 12 | 275 | 6.4 | 16.1 | 0.00 | 0.00 | 0.00 | 45 | 1016.9 |
| 20260502222054 | 12 | 278 | 8.0 | 16.1 | 0.00 | 0.00 | 0.00 | 44 | 1016.9 |
| 20260502221554 | 12 | 296 | 8.0 | 14.5 | 0.00 | 0.00 | 0.00 | 44 | 1016.9 |
| 20260502221058 | 12 | 313 | 6.4 | 17.7 | 0.00 | 0.00 | 0.00 | 45 | 1017.0 |
| 20260502220558 | 12 | 266 | 8.0 | 20.9 | 0.00 | 0.00 | 0.00 | 41 | 1017.0 |
| 20260502220055 | 12 | 297 | 14.5 | 20.9 | 0.00 | 0.00 | 0.00 | 43 | 1016.9 |
| 20260502215555 | 13 | 317 | 11.3 | 16.1 | 0.00 | 0.00 | 0.00 | 43 | 1016.9 |
| 20260502215055 | 13 | 270 | 8.0 | 17.7 | 0.00 | 0.00 | 0.00 | 40 | 1016.9 |
| 20260502214602 | 13 | 274 | 8.0 | 20.9 | 0.00 | 0.00 | 0.00 | 42 | 1016.9 |
| 20260502214053 | 13 | 259 | 11.3 | 20.9 | 0.00 | 0.00 | 0.00 | 44 | 1016.8 |
| 20260502213553 | 13 | 282 | 14.5 | 20.9 | 0.00 | 0.00 | 0.00 | 40 | 1016.9 |
| 20260502213053 | 13 | 239 | 12.9 | 20.9 | 0.00 | 0.00 | 0.00 | 43 | 1016.9 |
| 20260502212553 | 13 | 298 | 9.7 | 19.3 | 0.00 | 0.00 | 0.00 | 41 | 1016.9 |
| 20260502212055 | 13 | 279 | 9.7 | 19.3 | 0.00 | 0.00 | 0.00 | 41 | 1017.0 |
| 20260502211551 | 13 | 243 | 6.4 | 17.7 | 0.00 | 0.00 | 0.00 | 44 | 1017.0 |
| 20260502211052 | 13 | 304 | 9.7 | 17.7 | 0.00 | 0.00 | 0.00 | 40 | 1017.0 |
| 20260502210550 | 13 | 267 | 9.7 | 17.7 | 0.00 | 0.00 | 0.00 | 45 | 1017.0 |
| 20260502210057 | 13 | 275 | 9.7 | 20.9 | 0.00 | 0.00 | 0.00 | 41 | 1017.1 |
| 20260502205549 | 13 | 265 | 14.5 | 22.5 | 0.00 | 0.00 | 0.00 | 42 | 1017.2 |
| 20260502205049 | 13 | 313 | 12.9 | 22.5 | 0.00 | 0.00 | 0.00 | 42 | 1017.1 |
| 20260502204549 | 13 | 306 | 8.0 | 17.7 | 0.00 | 0.00 | 0.00 | 41 | 1017.2 |
| 20260502204048 | 13 | 304 | 9.7 | 17.7 | 0.00 | 0.00 | 0.00 | 42 | 1017.3 |
| 20260502203551 | 13 | 325 | 9.7 | 17.7 | 0.00 | 0.00 | 0.00 | 45 | 1017.3 |
| 20260502203046 | 12 | 322 | 8.0 | 17.7 | 0.00 | 0.00 | 0.00 | 47 | 1017.4 |
| 20260502202546 | 12 | 329 | 9.7 | 27.4 | 0.00 | 0.00 | 0.00 | 47 | 1017.5 |
| 20260502202046 | 13 | 325 | 12.9 | 27.4 | 0.00 | 0.00 | 0.00 | 45 | 1017.4 |
| 20260502201549 | 13 | 321 | 11.3 | 20.9 | 0.00 | 0.00 | 0.00 | 41 | 1017.5 |
| 20260502201045 | 13 | 293 | 8.0 | 17.7 | 0.00 | 0.00 | 0.00 | 44 | 1017.7 |
| 20260502200545 | 13 | 338 | 9.7 | 24.1 | 0.00 | 0.00 | 0.00 | 40 | 1017.7 |
| 20260502200044 | 13 | 240 | 6.4 | 25.7 | 0.00 | 0.00 | 0.00 | 40 | 1017.7 |
| 20260502195544 | 13 | 287 | 14.5 | 25.7 | 0.00 | 0.00 | 0.00 | 44 | 1017.8 |
| 20260502195043 | 13 | 271 | 9.7 | 17.7 | 0.00 | 0.00 | 0.00 | 41 | 1017.9 |
| 20260502194542 | 13 | 323 | 12.9 | 24.1 | 0.00 | 0.00 | 0.00 | 47 | 1018.0 |
| 20260502194042 | 13 | 342 | 14.5 | 24.1 | 0.00 | 0.00 | 0.00 | 42 | 1018.0 |
| 20260502193543 | 13 | 309 | 6.4 | 20.9 | 0.00 | 0.00 | 0.00 | 42 | 1018.0 |
| 20260502193042 | 13 | 313 | 9.7 | 25.7 | 0.00 | 0.00 | 0.00 | 45 | 1018.1 |
| 20260502192539 | 13 | 330 | 14.5 | 22.5 | 0.00 | 0.00 | 0.00 | 46 | 1018.2 |
| 20260502192038 | 12 | 320 | 14.5 | 20.9 | 0.00 | 0.00 | 0.00 | 44 | 1018.3 |
| 20260502191538 | 12 | 328 | 11.3 | 22.5 | 0.00 | 0.00 | 0.00 | 48 | 1018.3 |
| 20260502191038 | 12 | 321 | 11.3 | 22.5 | 0.00 | 0.00 | 0.00 | 44 | 1018.4 |
| 20260502190538 | 13 | 346 | 16.1 | 22.5 | 0.00 | 0.00 | 0.00 | 45 | 1018.4 |
| 20260502190042 | 12 | 313 | 14.5 | 24.1 | 0.00 | 0.00 | 0.00 | 44 | 1018.5 |
| 20260502185537 | 12 | 304 | 14.5 | 20.9 | 0.00 | 0.00 | 0.00 | 46 | 1018.5 |
| 20260502185037 | 12 | 272 | 6.4 | 17.7 | 0.00 | 0.00 | 0.00 | 43 | 1018.5 |
| 20260502184554 | 12 | 355 | 8.0 | 20.9 | 0.00 | 0.00 | 0.00 | 44 | 1018.5 |
| 20260502184034 | 12 | 348 | 14.5 | 20.9 | 0.00 | 0.00 | 0.00 | 46 | 1018.6 |
| 20260502183534 | 11 | 271 | 9.7 | 17.7 | 0.00 | 0.00 | 0.00 | 44 | 1018.6 |
| 20260502183034 | 12 | 262 | 9.7 | 19.3 | 0.00 | 0.00 | 0.00 | 40 | 1018.6 |
| 20260502182535 | 12 | 288 | 9.7 | 19.3 | 0.00 | 0.00 | 0.00 | 47 | 1018.7 |
| 20260502182032 | 11 | 298 | 9.7 | 19.3 | 0.00 | 0.00 | 0.00 | 47 | 1018.8 |
| 20260502181533 | 11 | 326 | 12.9 | 19.3 | 0.00 | 0.00 | 0.00 | 46 | 1018.9 |
| 20260502181032 | 11 | 342 | 6.4 | 16.1 | 0.00 | 0.00 | 0.00 | 45 | 1018.8 |
| 20260502180532 | 11 | 297 | 6.4 | 19.3 | 0.00 | 0.00 | 0.00 | 43 | 1018.9 |
| 20260502164026 | 10 | 290 | 4.8 | 14.5 | 0.00 | 0.00 | 0.00 | 50 | 1019.5 |
| 20260502163526 | 10 | 9 | 8.0 | 14.5 | 0.00 | 0.00 | 0.00 | 46 | 1019.5 |
| 20260502163032 | 10 | 355 | 3.2 | 14.5 | 0.00 | 0.00 | 0.00 | 46 | 1019.5 |
| 20260502162526 | 10 | 306 | 4.8 | 16.1 | 0.00 | 0.00 | 0.00 | 45 | 1019.6 |
| 20260502162030 | 11 | 254 | 11.3 | 16.1 | 0.00 | 0.00 | 0.00 | 46 | 1019.7 |
| 20260502161525 | 11 | 341 | 8.0 | 16.1 | 0.00 | 0.00 | 0.00 | 48 | 1019.7 |
| 20260502161025 | 11 | 315 | 8.0 | 16.1 | 0.00 | 0.00 | 0.00 | 50 | 1019.8 |
| 20260502160529 | 11 | 299 | 8.0 | 14.5 | 0.00 | 0.00 | 0.00 | 47 | 1019.7 |
| 20260502152017 | 10 | 336 | 3.2 | 9.7 | 0.00 | 0.00 | 0.00 | 49 | 1019.9 |
| 20260502151517 | 10 | 323 | 3.2 | 14.5 | 0.00 | 0.00 | 0.00 | 47 | 1019.9 |
| 20260502151016 | 10 | 25 | 4.8 | 14.5 | 0.00 | 0.00 | 0.00 | 47 | 1019.9 |
| 20260502150516 | 9 | 311 | 8.0 | 12.9 | 0.00 | 0.00 | 0.00 | 47 | 1019.9 |
| 20260502130551 | 5 | 319 | 3.2 | 4.8 | 0.00 | 0.00 | 0.00 | 77 | 1019.6 |
| 20260502123546 | 4 | 310 | 1.6 | 3.2 | 0.00 | 0.00 | 0.00 | 84 | 1019.6 |
| 20260502123058 | 4 | 88 | 0.0 | 0.0 | 0.00 | 0.00 | 0.00 | 86 | 1019.5 |
| 20260502122544 | 3 | 88 | 0.0 | 0.0 | 0.00 | 0.00 | 0.00 | 87 | 1019.4 |
| 20260502122043 | 3 | 88 | 0.0 | 0.0 | 0.00 | 0.00 | 0.00 | 88 | 1019.5 |
| 20260502121542 | 3 | 88 | 0.0 | 0.0 | 0.00 | 0.00 | 0.00 | 89 | 1019.4 |
| 20260502121041 | 3 | 88 | 0.0 | 0.0 | 0.00 | 0.00 | 0.00 | 90 | 1019.5 |
| 20260502120542 | 3 | 88 | 0.0 | 0.0 | 0.00 | 0.00 | 0.00 | 90 | 1019.4 |
| 20260502115540 | 2 | 88 | 0.0 | 0.0 | 0.00 | 0.00 | 0.00 | 93 | 1019.3 |
| 20260502115040 | 2 | 88 | 0.0 | 0.0 | 0.00 | 0.00 | 0.00 | 93 | 1019.3 |
| 20260502114544 | 2 | 88 | 0.0 | 0.0 | 0.00 | 0.00 | 0.00 | 93 | 1019.2 |
| 20260502114041 | 1 | 88 | 0.0 | 1.6 | 0.00 | 0.00 | 0.00 | 93 | 1019.2 |
| 20260502113537 | 1 | 88 | 0.0 | 3.2 | 0.00 | 0.00 | 0.00 | 92 | 1019.1 |
| 20260502113043 | 0 | 88 | 0.0 | 3.2 | 0.00 | 0.00 | 0.00 | 92 | 1019.1 |
| 20260502112538 | 0 | 88 | 0.0 | 0.0 | 0.00 | 0.00 | 0.00 | 91 | 1019.0 |
| 20260502112036 | 0 | 88 | 0.0 | 0.0 | 0.00 | 0.00 | 0.00 | 91 | 1019.0 |
| 20260502111542 | 0 | 88 | 0.0 | 0.0 | 0.00 | 0.00 | 0.00 | 91 | 1018.9 |
| 20260502111038 | 0 | 40 | 0.0 | 0.0 | 0.00 | 0.00 | 0.00 | 91 | 1018.9 |
| 20260502110535 | 1 | 40 | 0.0 | 0.0 | 0.00 | 0.00 | 0.00 | 91 | 1018.8 |
| 20260502110038 | 1 | 40 | 0.0 | 1.6 | 0.00 | 0.00 | 0.00 | 91 | 1018.9 |
| 20260502105535 | 1 | 40 | 0.0 | 1.6 | 0.00 | 0.03 | 0.00 | 91 | 1018.8 |
| 20260502105034 | 1 | 40 | 0.0 | 0.0 | 0.00 | 0.03 | 0.00 | 91 | 1018.8 |
| 20260502104539 | 1 | 40 | 0.0 | 0.0 | 0.00 | 0.03 | 0.00 | 90 | 1018.8 |
| 20260502104033 | 1 | 40 | 0.0 | 1.6 | 0.00 | 0.03 | 0.00 | 91 | 1018.8 |
| 20260502103533 | 1 | 40 | 0.0 | 1.6 | 0.00 | 0.03 | 0.00 | 91 | 1018.8 |
| 20260502103033 | 1 | 40 | 0.0 | 0.0 | 0.00 | 0.03 | 0.00 | 91 | 1018.8 |
| 20260502102533 | 1 | 40 | 0.0 | 0.0 | 0.00 | 0.03 | 0.00 | 90 | 1018.8 |
| 20260502102032 | 1 | 40 | 0.0 | 0.0 | 0.00 | 0.03 | 0.00 | 90 | 1018.8 |
| 20260502101530 | 1 | 40 | 0.0 | 0.0 | 0.00 | 0.03 | 0.00 | 89 | 1018.8 |
| 20260502101029 | 1 | 40 | 0.0 | 3.2 | 0.00 | 0.03 | 0.00 | 89 | 1018.8 |
| 20260502100530 | 1 | 40 | 0.0 | 3.2 | 0.00 | 0.03 | 0.00 | 90 | 1018.7 |
| 20260502091521 | 2 | 40 | 0.0 | 1.6 | 0.00 | 0.03 | 0.00 | 86 | 1018.5 |
| 20260502091021 | 2 | 40 | 0.0 | 3.2 | 0.00 | 0.03 | 0.00 | 86 | 1018.6 |
| 20260502090527 | 2 | 40 | 1.6 | 3.2 | 0.00 | 0.03 | 0.00 | 87 | 1018.6 |
| 20260502071515 | 3 | 40 | 0.0 | 3.2 | 0.00 | 0.03 | 0.00 | 84 | 1018.3 |
| 20260502071014 | 3 | 40 | 0.0 | 3.2 | 0.00 | 0.03 | 0.00 | 84 | 1018.5 |
| 20260502070514 | 3 | 40 | 0.0 | 4.8 | 0.00 | 0.03 | 0.00 | 84 | 1018.5 |
| 20260502070013 | 3 | 40 | 1.6 | 4.8 | 0.00 | 0.03 | 0.00 | 84 | 1018.5 |
| 20260502065514 | 3 | 40 | 1.6 | 4.8 | 0.00 | 0.03 | 0.00 | 84 | 1018.5 |
| 20260502065011 | 3 | 52 | 1.6 | 4.8 | 0.00 | 0.03 | 0.00 | 84 | 1018.6 |
| 20260502064510 | 3 | 52 | 1.6 | 4.8 | 0.00 | 0.03 | 0.00 | 84 | 1018.6 |
| 20260502064010 | 3 | 52 | 1.6 | 3.2 | 0.00 | 0.03 | 0.00 | 83 | 1018.6 |
| 20260502063510 | 3 | 52 | 0.0 | 4.8 | 0.00 | 0.03 | 0.00 | 82 | 1018.7 |
| 20260502063009 | 3 | 52 | 0.0 | 4.8 | 0.00 | 0.03 | 0.00 | 82 | 1018.7 |
| 20260502062509 | 3 | 52 | 1.6 | 4.8 | 0.00 | 0.03 | 0.00 | 83 | 1018.8 |
| 20260502062010 | 3 | 52 | 1.6 | 3.2 | 0.00 | 0.03 | 0.00 | 82 | 1018.8 |
| 20260502061508 | 3 | 52 | 0.0 | 3.2 | 0.00 | 0.03 | 0.00 | 82 | 1018.9 |
| 20260502061007 | 3 | 52 | 0.0 | 3.2 | 0.00 | 0.03 | 0.00 | 82 | 1018.9 |
| 20260502060507 | 3 | 52 | 0.0 | 1.6 | 0.00 | 0.03 | 0.00 | 83 | 1018.8 |
| 20260502060006 | 3 | 52 | 0.0 | 3.2 | 0.00 | 0.03 | 0.00 | 83 | 1018.9 |
| 20260502055506 | 3 | 52 | 0.0 | 3.2 | 0.00 | 0.20 | 0.00 | 83 | 1018.9 |
| 20260502055006 | 3 | 52 | 0.0 | 3.2 | 0.00 | 0.20 | 0.00 | 83 | 1018.9 |
| 20260502054505 | 3 | 52 | 1.6 | 3.2 | 0.00 | 0.20 | 0.00 | 82 | 1018.9 |
| 20260502054007 | 3 | 52 | 0.0 | 0.0 | 0.00 | 0.20 | 0.00 | 81 | 1018.9 |
| 20260502053504 | 3 | 52 | 0.0 | 1.6 | 0.00 | 0.20 | 0.00 | 81 | 1019.0 |
| 20260502053004 | 3 | 52 | 0.0 | 3.2 | 0.00 | 0.20 | 0.00 | 81 | 1019.0 |
| 20260502052506 | 3 | 52 | 0.0 | 3.2 | 0.00 | 0.20 | 0.00 | 80 | 1019.0 |
| 20260502052004 | 3 | 52 | 0.0 | 3.2 | 0.00 | 0.20 | 0.00 | 80 | 1019.0 |
| 20260502051505 | 2 | 52 | 0.0 | 4.8 | 0.00 | 0.20 | 0.00 | 82 | 1019.0 |
| 20260502051100 | 2 | 52 | 0.0 | 4.8 | 0.00 | 0.20 | 0.00 | 82 | 1019.0 |
| 20260502050559 | 2 | 52 | 1.6 | 4.8 | 0.00 | 0.20 | 0.00 | 83 | 1018.9 |
| 20260502050104 | 2 | 52 | 3.2 | 8.0 | 0.00 | 0.20 | 0.00 | 83 | 1019.0 |
| 20260502045559 | 2 | 49 | 3.2 | 8.0 | 0.00 | 0.25 | 0.20 | 83 | 1019.0 |
| 20260502045058 | 2 | 45 | 3.2 | 8.0 | 0.00 | 0.25 | 0.20 | 82 | 1019.0 |
| 20260502044558 | 2 | 48 | 3.2 | 8.0 | 0.00 | 0.25 | 0.20 | 82 | 1019.0 |
| 20260502044101 | 2 | 60 | 3.2 | 8.0 | 0.00 | 0.25 | 0.20 | 81 | 1019.0 |
| 20260502043557 | 2 | 52 | 3.2 | 8.0 | 0.00 | 0.25 | 0.20 | 81 | 1018.9 |
| 20260502043107 | 3 | 49 | 4.8 | 9.7 | 0.00 | 0.25 | 0.20 | 80 | 1018.9 |
| 20260502042557 | 3 | 47 | 4.8 | 9.7 | 0.00 | 0.25 | 0.20 | 80 | 1018.8 |
| 20260502042055 | 3 | 42 | 6.4 | 9.7 | 0.00 | 0.25 | 0.20 | 80 | 1018.9 |
| 20260502041556 | 3 | 45 | 4.8 | 8.0 | 0.00 | 0.25 | 0.20 | 79 | 1018.8 |
| 20260502041055 | 2 | 72 | 3.2 | 8.0 | 0.00 | 0.25 | 0.20 | 80 | 1018.8 |
| 20260502040554 | 3 | 60 | 4.8 | 8.0 | 0.00 | 0.25 | 0.20 | 80 | 1018.8 |
| 20260502040054 | 3 | 48 | 4.8 | 8.0 | 0.00 | 0.25 | 0.20 | 78 | 1018.9 |
| 20260502035555 | 3 | 75 | 4.8 | 9.7 | 0.00 | 0.25 | 0.20 | 77 | 1018.9 |
| 20260502035059 | 3 | 63 | 6.4 | 12.9 | 0.00 | 0.25 | 0.20 | 77 | 1018.8 |
| 20260502034551 | 3 | 59 | 6.4 | 12.9 | 0.00 | 0.25 | 0.20 | 77 | 1018.8 |
| 20260502034052 | 3 | 47 | 6.4 | 14.5 | 0.00 | 0.25 | 0.20 | 77 | 1018.8 |
| 20260502033553 | 3 | 54 | 4.8 | 11.3 | 0.00 | 0.25 | 0.20 | 77 | 1018.8 |
| 20260502033058 | 3 | 69 | 6.4 | 14.5 | 0.00 | 0.25 | 0.20 | 77 | 1018.7 |
| 20260502032548 | 3 | 53 | 8.0 | 14.5 | 0.00 | 0.25 | 0.20 | 76 | 1018.6 |
| 20260502032047 | 3 | 48 | 8.0 | 16.1 | 0.00 | 0.25 | 0.20 | 76 | 1018.5 |
| 20260502031551 | 3 | 65 | 11.3 | 16.1 | 0.00 | 0.25 | 0.20 | 75 | 1018.5 |
| 20260502031047 | 4 | 51 | 8.0 | 14.5 | 0.00 | 0.25 | 0.20 | 76 | 1018.4 |
| 20260502030545 | 4 | 48 | 9.7 | 17.7 | 0.00 | 0.25 | 0.20 | 75 | 1018.4 |
| 20260502030055 | 4 | 44 | 9.7 | 17.7 | 0.00 | 0.25 | 0.20 | 75 | 1018.3 |
| 20260502025543 | 4 | 69 | 8.0 | 14.5 | 0.00 | 0.25 | 0.20 | 75 | 1018.4 |
| 20260502025042 | 4 | 48 | 6.4 | 12.9 | 0.00 | 0.25 | 0.20 | 76 | 1018.4 |
| 20260502024544 | 4 | 51 | 8.0 | 14.5 | 0.00 | 0.25 | 0.20 | 74 | 1018.3 |
| 20260502024042 | 5 | 29 | 8.0 | 17.7 | 0.00 | 0.25 | 0.20 | 74 | 1018.2 |
| 20260502023539 | 5 | 40 | 9.7 | 19.3 | 0.00 | 0.25 | 0.20 | 72 | 1018.1 |
| 20260502023057 | 5 | 38 | 11.3 | 19.3 | 0.00 | 0.25 | 0.20 | 72 | 1017.9 |
| 20260502022536 | 5 | 65 | 11.3 | 19.3 | 0.00 | 0.25 | 0.20 | 71 | 1017.9 |
| 20260502022036 | 5 | 42 | 11.3 | 16.1 | 0.00 | 0.25 | 0.20 | 72 | 1017.8 |
| 20260502021541 | 5 | 52 | 9.7 | 17.7 | 0.00 | 0.25 | 0.20 | 73 | 1017.8 |
| 20260502021033 | 5 | 50 | 9.7 | 20.9 | 0.00 | 0.25 | 0.20 | 73 | 1017.6 |
| 20260502020533 | 5 | 34 | 9.7 | 20.9 | 0.00 | 0.25 | 0.20 | 73 | 1017.6 |
| 20260502020032 | 5 | 42 | 9.7 | 19.3 | 0.00 | 0.25 | 0.20 | 74 | 1017.5 |
| 20260502015531 | 6 | 51 | 11.3 | 19.3 | 0.00 | 0.28 | 0.20 | 74 | 1017.4 |
| 20260502015031 | 6 | 22 | 11.3 | 19.3 | 0.00 | 0.28 | 0.20 | 75 | 1017.3 |
| 20260502014628 | 6 | 10 | 11.3 | 17.7 | 0.00 | 0.28 | 0.20 | 76 | 1017.2 |
| 20260502014029 | 6 | 40 | 8.0 | 17.7 | 0.00 | 0.28 | 0.20 | 76 | 1017.1 |
| 20260502013528 | 6 | 61 | 6.4 | 11.3 | 0.00 | 0.28 | 0.20 | 77 | 1017.0 |
| 20260502013027 | 6 | 48 | 4.8 | 9.7 | 0.00 | 0.28 | 0.20 | 76 | 1017.0 |
| 20260502012531 | 6 | 60 | 6.4 | 11.3 | 0.00 | 0.28 | 0.20 | 75 | 1016.8 |
| 20260502012030 | 6 | 59 | 4.8 | 11.3 | 0.00 | 0.28 | 0.20 | 74 | 1016.7 |
| 20260502011525 | 6 | 38 | 4.8 | 11.3 | 0.00 | 0.28 | 0.20 | 74 | 1016.7 |
| 20260502011023 | 6 | 74 | 3.2 | 11.3 | 0.00 | 0.28 | 0.20 | 73 | 1016.6 |
| 20260502010529 | 7 | 59 | 4.8 | 12.9 | 0.00 | 0.28 | 0.20 | 72 | 1016.5 |